User: anonymous   Login
Location: Umburanas
(4.5000°S, 37.9667°W)
Time: 13:37:38
(UTC+00:00)
Language:

Cosmos 1862 - Orbit

View from above orbital plane
View from above orbital plane
View from above satellite
View from above satellite

Ground track
Ground track

The orbit data is extracted from the following two-line orbital elements,

1 18152U 87055A   20021.61024645 +.00000605 +00000-0 +39175-4 0  9995
2 18152 082.4968 091.6839 0012724 212.3742 147.6706 15.06265005751261
Epoch (UTC): 21 January 2020 14:38:45
Eccentricity: 0.0012724
inclination: 82.4968°
perigee height: 539 km
apogee height: 556 km
right ascension of ascending node: 91.6839°
argument of perigee: 212.3742°
revolutions per day: 15.06265005
mean anomaly at epoch: 147.6706°
orbit number at epoch: 75126

The dashed part of the orbit path shows where the satellite is in the earth's shadow,  

DLR